Simultaneous Nadir Overpasses (SNOs) Predictions

Prediction of SNOs between NOAA-19 and TERRA Satellite Orbit:

Table of predicted SNOs for the next 14.0 days since TLE Epoch: 3/27/2021
Index Date (NOAA-19) Time (NOAA-19) Lat,Lon (NOAA-19) SZA (NOAA-19 ) Date (TERRA) Time (TERRA) Lat,Lon (TERRA) SZA (TERRA ) Distance(km) Time Diff (sec)
1 03/29/2021 02:19:22 80.27, 175.46 78.05 03/29/2021 02:20:31 80.16, 177.67 78.18 43.44 69
2 03/29/2021 03:10:20 -80.11, -14.93 101.89 03/29/2021 03:09:59 -80.12, -15.01 101.90 2.15 21
3 03/31/2021 08:43:27 80.12, 81.75 77.27 03/31/2021 08:43:40 80.14, 81.70 77.28 2.45 13
4 04/02/2021 14:16:45 -80.15, 178.16 103.58 04/02/2021 14:17:23 -80.12, 178.08 103.60 3.28 38
5 04/02/2021 15:07:39 80.12, -14.23 76.42 04/02/2021 15:06:49 80.12, -14.29 76.39 1.18 50
6 04/04/2021 19:49:52 80.16, -85.18 75.59 04/04/2021 19:51:03 80.16, -84.99 75.64 3.56 71
7 04/04/2021 20:40:56 -80.13, 82.45 104.41 04/04/2021 20:40:31 -80.13, 82.38 104.43 1.42 25
8 04/07/2021 02:14:03 80.14, 179.15 74.77 04/07/2021 02:14:12 80.13, 178.97 74.76 3.38 9
9 04/09/2021 07:47:20 -80.15, -84.30 106.05 04/09/2021 07:47:54 -80.14, -84.38 106.05 1.79 34



Historial Predications of SNOs between NOAA-19 and TERRA
